When you browse on this site, cookies collect data to enhance your experience and personalize the content and advertising you see.
Visit our Privacy Policy to learn more. By continuing to use the site, you agree to this use of cookies and data.

Hourly Weather Yulara

Today, 11 July, Saturday

Time Temperature Precipitation Wind Pressure Humidity
00:00 +8°C° 0 mm 5 mps 722 mmHg 69%
01:00 +7°C° 0 mm 4 mps 722 mmHg 70%
02:00 +7°C° 0 mm 4 mps 722 mmHg 71%
03:00 +6°C° 0 mm 4 mps 723 mmHg 72%
04:00 +6°C° 0 mm 4 mps 722 mmHg 72%
05:00 +5°C° 0 mm 4 mps 722 mmHg 72%
06:00 +5°C° 0 mm 4 mps 722 mmHg 71%
07:00 +6°C° 0 mm 4 mps 723 mmHg 65%
08:00 +8°C° 0 mm 4 mps 723 mmHg 59%
09:00 +9°C° 0 mm 5 mps 724 mmHg 52%
10:00 +12°C° 0 mm 5 mps 724 mmHg 46%
11:00 +14°C° 0 mm 5 mps 723 mmHg 39%
12:00 +15°C° 0 mm 5 mps 723 mmHg 32%
13:00 +16°C° 0 mm 5 mps 723 mmHg 28%
14:00 +17°C° 0 mm 5 mps 722 mmHg 25%
15:00 +17°C° 0 mm 5 mps 721 mmHg 21%
16:00 +15°C° 0 mm 5 mps 721 mmHg 25%
17:00 +14°C° 0 mm 4 mps 721 mmHg 28%
18:00 +12°C° 0 mm 4 mps 721 mmHg 32%
19:00 +10°C° 0 mm 4 mps 722 mmHg 37%
20:00 +8°C° 0 mm 5 mps 723 mmHg 42%
21:00 +7°C° 0 mm 5 mps 724 mmHg 48%
22:00 +7°C° 0 mm 5 mps 723 mmHg 54%
23:00 +6°C° 0 mm 5 mps 723 mmHg 61%

Tomorrow, 12 July, Sunday

Time Temperature Precipitation Wind Pressure Humidity
00:00 +5°C° 0 mm 5 mps 723 mmHg 68%
01:00 +5°C° 0 mm 4 mps 723 mmHg 72%
02:00 +4°C° 0 mm 4 mps 723 mmHg 75%
03:00 +4°C° 0 mm 4 mps 723 mmHg 79%
04:00 +3°C° 0 mm 4 mps 723 mmHg 80%
05:00 +3°C° 0 mm 3 mps 723 mmHg 82%
06:00 +3°C° 0 mm 3 mps 723 mmHg 83%
07:00 +5°C° 0 mm 4 mps 724 mmHg 77%
08:00 +7°C° 0 mm 4 mps 724 mmHg 72%
09:00 +8°C° 0 mm 5 mps 724 mmHg 66%
10:00 +10°C° 0 mm 5 mps 724 mmHg 56%
11:00 +13°C° 0 mm 5 mps 723 mmHg 47%
12:00 +15°C° 0 mm 5 mps 723 mmHg 38%
13:00 +16°C° 0 mm 5 mps 722 mmHg 34%
14:00 +17°C° 0 mm 5 mps 722 mmHg 30%
15:00 +19°C° 0 mm 5 mps 721 mmHg 27%
16:00 +16°C° 0 mm 5 mps 721 mmHg 33%
17:00 +14°C° 0 mm 4 mps 721 mmHg 40%
18:00 +12°C° 0 mm 4 mps 721 mmHg 46%
19:00 +11°C° 0 mm 4 mps 722 mmHg 50%
20:00 +10°C° 0 mm 4 mps 722 mmHg 54%
21:00 +7°C° 0 mm 4 mps 723 mmHg 59%
22:00 +7°C° 0 mm 4 mps 723 mmHg 62%
23:00 +6°C° 0 mm 4 mps 723 mmHg 65%

Day after tomorrow, 13 July, Monday

Time Temperature Precipitation Wind Pressure Humidity
00:00 +5°C° 0 mm 4 mps 723 mmHg 68%
01:00 +4°C° 0 mm 4 mps 723 mmHg 72%
02:00 +4°C° 0 mm 3 mps 723 mmHg 76%
03:00 +3°C° 0 mm 3 mps 723 mmHg 81%
04:00 +3°C° 0 mm 3 mps 723 mmHg 82%
05:00 +3°C° 0 mm 3 mps 723 mmHg 84%
06:00 +2°C° 0 mm 3 mps 723 mmHg 85%
07:00 +4°C° 0 mm 4 mps 724 mmHg 77%
08:00 +6°C° 0 mm 4 mps 724 mmHg 68%
09:00 +8°C° 0 mm 5 mps 724 mmHg 60%
10:00 +10°C° 0 mm 5 mps 724 mmHg 51%
11:00 +14°C° 0 mm 5 mps 723 mmHg 43%
12:00 +16°C° 0 mm 6 mps 723 mmHg 34%
13:00 +17°C° 0 mm 5 mps 722 mmHg 31%
14:00 +19°C° 0 mm 5 mps 722 mmHg 27%
15:00 +20°C° 0 mm 5 mps 721 mmHg 24%
16:00 +17°C° 0 mm 5 mps 721 mmHg 28%
17:00 +15°C° 0 mm 4 mps 721 mmHg 32%
18:00 +13°C° 0 mm 4 mps 721 mmHg 35%
19:00 +12°C° 0 mm 4 mps 722 mmHg 38%
20:00 +10°C° 0 mm 4 mps 722 mmHg 41%
21:00 +8°C° 0 mm 4 mps 723 mmHg 44%
22:00 +8°C° 0 mm 4 mps 723 mmHg 47%
23:00 +7°C° 0 mm 4 mps 723 mmHg 49%

14 July, Tuesday

Time Temperature Precipitation Wind Pressure Humidity
00:00 +6°C° 0 mm 4 mps 723 mmHg 52%
01:00 +5°C° 0 mm 4 mps 723 mmHg 55%
02:00 +4°C° 0 mm 4 mps 722 mmHg 58%
03:00 +4°C° 0 mm 3 mps 722 mmHg 61%
04:00 +3°C° 0 mm 3 mps 722 mmHg 63%
05:00 +3°C° 0 mm 3 mps 723 mmHg 65%
06:00 +2°C° 0 mm 3 mps 723 mmHg 68%
07:00 +4°C° 0 mm 4 mps 723 mmHg 60%
08:00 +6°C° 0 mm 4 mps 724 mmHg 53%
09:00 +8°C° 0 mm 4 mps 724 mmHg 46%
10:00 +11°C° 0 mm 4 mps 724 mmHg 39%
11:00 +14°C° 0 mm 4 mps 723 mmHg 32%
12:00 +16°C° 0 mm 5 mps 723 mmHg 25%
13:00 +18°C° 0 mm 4 mps 722 mmHg 23%
14:00 +19°C° 0 mm 3 mps 722 mmHg 20%
15:00 +20°C° 0 mm 3 mps 721 mmHg 18%
16:00 +17°C° 0 mm 3 mps 721 mmHg 24%
17:00 +15°C° 0 mm 2 mps 721 mmHg 30%
18:00 +12°C° 0 mm 2 mps 720 mmHg 36%
19:00 +11°C° 0 mm 3 mps 721 mmHg 37%
20:00 +10°C° 0 mm 3 mps 721 mmHg 37%
21:00 +9°C° 0 mm 3 mps 721 mmHg 38%
22:00 +8°C° 0 mm 3 mps 721 mmHg 43%
23:00 +7°C° 0 mm 3 mps 721 mmHg 48%

15 July, Wednesday

Time Temperature Precipitation Wind Pressure Humidity
00:00 +6°C° 0 mm 2 mps 721 mmHg 53%
01:00 +6°C° 0 mm 2 mps 722 mmHg 55%
02:00 +5°C° 0 mm 3 mps 722 mmHg 56%
03:00 +5°C° 0 mm 3 mps 722 mmHg 58%
04:00 +5°C° 0 mm 3 mps 722 mmHg 59%
05:00 +4°C° 0 mm 3 mps 722 mmHg 61%
06:00 +4°C° 0 mm 3 mps 722 mmHg 63%
07:00 +7°C° 0 mm 3 mps 722 mmHg 56%
08:00 +8°C° 0 mm 3 mps 723 mmHg 49%
09:00 +10°C° 0 mm 3 mps 723 mmHg 43%
10:00 +13°C° 0 mm 2 mps 723 mmHg 37%
11:00 +16°C° 0 mm 2 mps 723 mmHg 32%
12:00 +18°C° 0 mm 2 mps 722 mmHg 26%
13:00 +19°C° 0 mm 2 mps 722 mmHg 24%
14:00 +20°C° 0 mm 2 mps 721 mmHg 21%
15:00 +21°C° 0 mm 3 mps 720 mmHg 19%
16:00 +19°C° 0 mm 3 mps 720 mmHg 22%
17:00 +17°C° 0 mm 3 mps 720 mmHg 25%
18:00 +13°C° 0 mm 3 mps 720 mmHg 28%
19:00 +12°C° 0 mm 3 mps 721 mmHg 30%
20:00 +11°C° 0 mm 3 mps 721 mmHg 32%
21:00 +10°C° 0 mm 3 mps 722 mmHg 35%
22:00 +10°C° 0 mm 3 mps 722 mmHg 37%
23:00 +9°C° 0 mm 3 mps 721 mmHg 39%

16 July, Thursday

Time Temperature Precipitation Wind Pressure Humidity
00:00 +8°C° 0 mm 3 mps 721 mmHg 41%
01:00 +8°C° 0 mm 3 mps 721 mmHg 43%
02:00 +7°C° 0 mm 3 mps 721 mmHg 45%
03:00 +5°C° 0 mm 3 mps 721 mmHg 47%
04:00 +5°C° 0 mm 3 mps 721 mmHg 48%
05:00 +4°C° 0 mm 3 mps 722 mmHg 50%
06:00 +4°C° 0 mm 3 mps 722 mmHg 52%
07:00 +7°C° 0 mm 3 mps 723 mmHg 47%
08:00 +8°C° 0 mm 4 mps 723 mmHg 42%
09:00 +11°C° 0 mm 4 mps 723 mmHg 37%
10:00 +13°C° 0 mm 5 mps 723 mmHg 32%
11:00 +16°C° 0 mm 5 mps 723 mmHg 26%
12:00 +19°C° 0 mm 6 mps 722 mmHg 21%
13:00 +20°C° 0 mm 6 mps 722 mmHg 18%
14:00 +22°C° 0 mm 6 mps 721 mmHg 16%
15:00 +23°C° 0 mm 6 mps 720 mmHg 14%
16:00 +20°C° 0 mm 5 mps 720 mmHg 17%
17:00 +17°C° 0 mm 5 mps 720 mmHg 20%
18:00 +15°C° 0 mm 4 mps 720 mmHg 23%
19:00 +13°C° 0 mm 4 mps 720 mmHg 27%
20:00 +12°C° 0 mm 5 mps 720 mmHg 31%
21:00 +10°C° 0 mm 5 mps 721 mmHg 36%
22:00 +9°C° 0 mm 5 mps 721 mmHg 39%
23:00 +8°C° 0 mm 5 mps 721 mmHg 43%
Show more